{"data":{"norad_id":67123,"intl_designator":"2025-299X","name":"STARLINK-36151","alt_names":[],"object_type":"PAYLOAD","status":"ACTIVE","operator":null,"country":"US","launch_date":"2025-12-15","launch_site_code":"AFETR","launch_vehicle":null,"mission":null,"orbit_class":"UNKNOWN","rcs_meters":null,"size_class":null,"mass_kg":null,"dimensions":null,"purposes":["comms"],"wikipedia_slug":null,"has_3d_model":false,"image_url":null,"decayed_at":null,"tle_current":{"epoch":"2026-09-20T23:14:24.573408Z","epoch_age_seconds":38097,"freshness":"FRESH","line1":"1 67123U 25299X   26263.96833997  .00007982  00000+0  29919-3 0  9997","line2":"2 67123  43.0028 145.9818 0000667 257.3891 102.6886 15.27589090 42988","mean_motion":15.2758909,"eccentricity":6.67e-5,"inclination_deg":43.0028,"raan_deg":145.9818,"arg_perigee_deg":257.3891,"mean_anomaly_deg":102.6886,"bstar":0.00029919,"rev_number":4298,"period_min":94.266187774358,"perigee_km":482.56423814739,"apogee_km":483.47951674164,"semimajor_km":6861.1588774445,"source":"CELESTRAK","updated_at":"2026-09-21T09:00:36.108139Z"}}}